• En España
  • Lista de países
  • Para 7 días
  • Temperatura del agua
  • Mapa Satelital
  • El tiempo en el mapa
  • Informadores
  • user-avatar
    Iniciar sesión

    Tiempo cada hora Yevlakh

    Hoy, 23 Junio, Sábado

    Tiempo Temperatura Precipitaciones Viento Presión Humedad
    00:00 +27°C° 0 mm 2 mps 757 mmHg 39%
    01:00 +27°C° 0 mm 2 mps 757 mmHg 40%
    02:00 +26°C° 0 mm 2 mps 757 mmHg 41%
    03:00 +26°C° 0 mm 1 mps 757 mmHg 42%
    04:00 +26°C° 0 mm 1 mps 757 mmHg 42%
    05:00 +27°C° 0 mm 1 mps 757 mmHg 41%
    06:00 +27°C° 0 mm 1 mps 757 mmHg 41%
    07:00 +29°C° 0 mm 1 mps 757 mmHg 37%
    08:00 +30°C° 0 mm 1 mps 757 mmHg 33%
    09:00 +32°C° 0 mm 2 mps 756 mmHg 29%
    10:00 +34°C° 0 mm 2 mps 756 mmHg 28%
    11:00 +35°C° 0 mm 2 mps 756 mmHg 26%
    12:00 +36°C° 0 mm 2 mps 755 mmHg 24%
    13:00 +37°C° 0 mm 2 mps 755 mmHg 23%
    14:00 +37°C° 0 mm 3 mps 755 mmHg 22%
    15:00 +38°C° 0 mm 3 mps 755 mmHg 21%
    16:00 +38°C° 0 mm 3 mps 755 mmHg 22%
    17:00 +37°C° 0 mm 3 mps 755 mmHg 23%
    18:00 +37°C° 0 mm 3 mps 755 mmHg 24%
    19:00 +35°C° 0 mm 3 mps 755 mmHg 26%
    20:00 +33°C° 0 mm 3 mps 756 mmHg 29%
    21:00 +30°C° 0 mm 3 mps 756 mmHg 31%
    22:00 +29°C° 0 mm 3 mps 756 mmHg 32%
    23:00 +28°C° 0 mm 2 mps 756 mmHg 33%

    Mañana, 24 Junio, Domingo

    Tiempo Temperatura Precipitaciones Viento Presión Humedad
    00:00 +28°C° 0 mm 2 mps 757 mmHg 34%
    01:00 +27°C° 0 mm 2 mps 757 mmHg 35%
    02:00 +27°C° 0 mm 1 mps 757 mmHg 35%
    03:00 +26°C° 0 mm 1 mps 757 mmHg 36%
    04:00 +27°C° 0 mm 2 mps 757 mmHg 36%
    05:00 +27°C° 0 mm 2 mps 757 mmHg 36%
    06:00 +28°C° 0 mm 2 mps 757 mmHg 36%
    07:00 +30°C° 0 mm 2 mps 757 mmHg 33%
    08:00 +31°C° 0 mm 3 mps 757 mmHg 29%
    09:00 +34°C° 0 mm 3 mps 757 mmHg 26%
    10:00 +35°C° 0 mm 3 mps 757 mmHg 25%
    11:00 +36°C° 0 mm 2 mps 756 mmHg 23%
    12:00 +36°C° 0 mm 1 mps 756 mmHg 22%
    13:00 +38°C° 0 mm 2 mps 756 mmHg 21%
    14:00 +39°C° 0 mm 2 mps 756 mmHg 20%
    15:00 +39°C° 0 mm 3 mps 755 mmHg 20%
    16:00 +39°C° 0 mm 3 mps 755 mmHg 21%
    17:00 +39°C° 0 mm 3 mps 755 mmHg 22%
    18:00 +38°C° 0 mm 3 mps 756 mmHg 22%
    19:00 +36°C° 0 mm 3 mps 756 mmHg 25%
    20:00 +34°C° 0 mm 3 mps 757 mmHg 27%
    21:00 +31°C° 0 mm 3 mps 758 mmHg 29%
    22:00 +31°C° 0 mm 3 mps 758 mmHg 31%
    23:00 +30°C° 0 mm 2 mps 758 mmHg 32%

    Pasado mañana, 25 Junio, Lunes

    Tiempo Temperatura Precipitaciones Viento Presión Humedad
    00:00 +29°C° 0 mm 2 mps 758 mmHg 33%
    01:00 +29°C° 0 mm 2 mps 758 mmHg 33%
    02:00 +28°C° 0 mm 1 mps 758 mmHg 34%
    03:00 +28°C° 0 mm 1 mps 758 mmHg 35%
    04:00 +28°C° 0 mm 1 mps 758 mmHg 34%
    05:00 +29°C° 0 mm 1 mps 758 mmHg 34%
    06:00 +30°C° 0 mm 1 mps 758 mmHg 33%
    07:00 +31°C° 0 mm 1 mps 758 mmHg 30%
    08:00 +34°C° 0 mm 2 mps 758 mmHg 26%
    09:00 +35°C° 0 mm 2 mps 758 mmHg 23%
    10:00 +37°C° 0 mm 2 mps 758 mmHg 21%
    11:00 +38°C° 0 mm 2 mps 758 mmHg 20%
    12:00 +39°C° 0 mm 2 mps 757 mmHg 18%
    13:00 +40°C° 0 mm 3 mps 757 mmHg 18%
    14:00 +40°C° 0 mm 3 mps 757 mmHg 18%
    15:00 +42°C° 0 mm 4 mps 756 mmHg 17%
    16:00 +41°C° 0 mm 4 mps 756 mmHg 19%
    17:00 +41°C° 0 mm 4 mps 756 mmHg 20%
    18:00 +40°C° 0 mm 3 mps 757 mmHg 21%
    19:00 +37°C° 0 mm 3 mps 757 mmHg 24%
    20:00 +35°C° 0 mm 3 mps 758 mmHg 26%
    21:00 +33°C° 0 mm 3 mps 758 mmHg 28%
    22:00 +33°C° 0 mm 3 mps 758 mmHg 29%
    23:00 +31°C° 0 mm 2 mps 758 mmHg 31%

    26 Junio, Martes

    Tiempo Temperatura Precipitaciones Viento Presión Humedad
    00:00 +30°C° 0 mm 2 mps 758 mmHg 32%
    01:00 +29°C° 0 mm 2 mps 758 mmHg 32%
    02:00 +29°C° 0 mm 1 mps 758 mmHg 33%
    03:00 +28°C° 0 mm 1 mps 758 mmHg 33%
    04:00 +29°C° 0 mm 1 mps 758 mmHg 33%
    05:00 +30°C° 0 mm 1 mps 758 mmHg 32%
    06:00 +30°C° 0 mm 1 mps 758 mmHg 32%
    07:00 +32°C° 0 mm 1 mps 758 mmHg 28%
    08:00 +35°C° 0 mm 2 mps 758 mmHg 24%
    09:00 +36°C° 0 mm 2 mps 757 mmHg 21%
    10:00 +38°C° 0 mm 2 mps 757 mmHg 19%
    11:00 +39°C° 0 mm 2 mps 757 mmHg 18%
    12:00 +40°C° 0 mm 2 mps 756 mmHg 16%
    13:00 +41°C° 0 mm 2 mps 756 mmHg 16%
    14:00 +42°C° 0 mm 3 mps 756 mmHg 16%
    15:00 +43°C° 0 mm 3 mps 755 mmHg 16%
    16:00 +42°C° 0 mm 3 mps 755 mmHg 17%
    17:00 +42°C° 0 mm 3 mps 755 mmHg 18%
    18:00 +42°C° 0 mm 3 mps 755 mmHg 19%
    19:00 +38°C° 0 mm 3 mps 756 mmHg 22%
    20:00 +36°C° 0 mm 3 mps 756 mmHg 24%
    21:00 +34°C° 0 mm 3 mps 757 mmHg 27%
    22:00 +33°C° 0 mm 3 mps 757 mmHg 29%
    23:00 +31°C° 0 mm 2 mps 757 mmHg 30%

    27 Junio, Miércoles

    Tiempo Temperatura Precipitaciones Viento Presión Humedad
    00:00 +30°C° 0 mm 2 mps 757 mmHg 32%
    01:00 +30°C° 0 mm 2 mps 757 mmHg 32%
    02:00 +29°C° 0 mm 1 mps 756 mmHg 32%
    03:00 +29°C° 0 mm 1 mps 756 mmHg 33%
    04:00 +30°C° 0 mm 1 mps 756 mmHg 32%
    05:00 +30°C° 0 mm 2 mps 756 mmHg 31%
    06:00 +31°C° 0 mm 2 mps 756 mmHg 30%
    07:00 +34°C° 0 mm 2 mps 756 mmHg 27%
    08:00 +35°C° 0 mm 2 mps 756 mmHg 24%
    09:00 +37°C° 0 mm 2 mps 756 mmHg 20%
    10:00 +38°C° 0 mm 2 mps 755 mmHg 19%
    11:00 +40°C° 0 mm 2 mps 755 mmHg 18%
    12:00 +41°C° 0 mm 2 mps 754 mmHg 17%
    13:00 +41°C° 0 mm 2 mps 754 mmHg 16%
    14:00 +42°C° 0 mm 2 mps 753 mmHg 16%
    15:00 +44°C° 0 mm 3 mps 753 mmHg 15%
    16:00 +43°C° 0 mm 3 mps 753 mmHg 16%
    17:00 +43°C° 0 mm 3 mps 753 mmHg 18%
    18:00 +43°C° 0 mm 3 mps 753 mmHg 19%
    19:00 +39°C° 0 mm 3 mps 754 mmHg 21%
    20:00 +37°C° 0 mm 3 mps 754 mmHg 24%
    21:00 +35°C° 0 mm 3 mps 755 mmHg 26%
    22:00 +34°C° 0 mm 3 mps 755 mmHg 28%
    23:00 +32°C° 0 mm 2 mps 755 mmHg 30%

    28 Junio, Jueves

    Tiempo Temperatura Precipitaciones Viento Presión Humedad
    00:00 +31°C° 0 mm 2 mps 755 mmHg 32%
    01:00 +31°C° 0 mm 2 mps 755 mmHg 33%
    02:00 +30°C° 0 mm 2 mps 755 mmHg 33%
    03:00 +30°C° 0 mm 1 mps 755 mmHg 34%
    04:00 +31°C° 0 mm 2 mps 755 mmHg 33%
    05:00 +31°C° 0 mm 2 mps 755 mmHg 32%
    06:00 +32°C° 0 mm 2 mps 755 mmHg 31%
    07:00 +35°C° 0 mm 2 mps 755 mmHg 27%
    08:00 +37°C° 0 mm 3 mps 755 mmHg 23%
    09:00 +38°C° 0 mm 3 mps 755 mmHg 19%
    10:00 +39°C° 0 mm 3 mps 754 mmHg 18%
    11:00 +41°C° 0 mm 2 mps 754 mmHg 17%
    12:00 +42°C° 0 mm 2 mps 753 mmHg 16%
    13:00 +42°C° 0 mm 2 mps 753 mmHg 15%
    14:00 +44°C° 0 mm 3 mps 753 mmHg 15%
    15:00 +45°C° 0 mm 3 mps 753 mmHg 14%
    16:00 +44°C° 0 mm 3 mps 753 mmHg 16%
    17:00 +44°C° 0 mm 4 mps 753 mmHg 17%
    18:00 +43°C° 0 mm 4 mps 753 mmHg 18%
    19:00 +41°C° 0 mm 4 mps 754 mmHg 19%
    20:00 +38°C° 0 mm 3 mps 754 mmHg 20%
    21:00 +36°C° 0 mm 3 mps 755 mmHg 21%
    22:00 +35°C° 0 mm 3 mps 755 mmHg 22%
    23:00 +32°C° 0 mm 2 mps 755 mmHg 23%
    Mostrar más